Theta_e
320 325 325 316 313 311 317 319 314 316 317 315 322 326 336 341 344 343 341 341 335 335 334 333 328 327 325 324 324 325 326 325 324 323 320 318 320 322 329 337 338 340 339 340 340 340 339 337 337
320 326 318 310 313 314 315 316 317 317 317 316 317 337 340 346 345 341 342 341 333 333 333 332 328 326 325 324 324 323 322 321 320 318 317 319 319 320 328 336 337 337 340 341 340 338 333 333 334
320 324 314 312 313 317 319 318 316 315 316 316 330 336 341 346 342 341 342 341 333 332 332 332 327 326 325 324 324 324 321 319 317 317 318 320 320 320 325 334 337 338 338 339 337 334 333 332 332
322 317 313 316 320 319 319 317 314 316 316 318 329 343 340 344 342 342 342 338 332 332 332 332 328 326 326 325 324 324 323 319 317 318 321 322 320 319 325 331 335 336 336 336 334 331 330 331 332
318 312 317 319 321 319 317 315 315 316 316 319 330 343 342 345 345 344 342 339 333 333 332 332 329 327 327 325 324 325 324 320 317 320 324 324 321 319 322 329 332 334 332 330 330 331 332 333 333
317 313 316 318 320 318 316 314 315 315 315 316 318 343 344 344 345 343 341 339 335 335 334 333 331 328 327 327 325 324 325 322 318 322 325 326 324 319 320 328 330 329 329 330 331 330 330 332 332
316 317 319 319 320 319 314 312 315 313 315 322 317 346 343 343 345 343 342 339 337 335 335 334 333 330 328 328 327 324 325 324 320 320 325 326 327 322 320 327 328 328 328 331 331 330 329 329 327
311 314 318 318 319 318 308 310 314 312 314 316 333 346 343 341 344 344 343 341 339 337 336 336 334 333 330 329 328 326 325 325 322 320 325 327 329 326 323 321 325 328 328 331 331 329 329 329 325
312 316 317 317 316 309 306 308 308 310 313 314 315 338 343 344 344 344 342 342 341 340 337 336 336 335 333 330 330 329 327 326 325 322 323 327 329 329 327 325 325 327 329 331 332 330 329 330 328
313 315 314 306 306 305 306 305 306 310 308 308 310 311 337 343 343 342 341 340 341 341 340 338 337 336 335 333 332 332 330 329 327 325 323 326 328 330 330 328 327 328 329 330 331 332 332 332 333
305 307 304 305 305 304 304 304 306 305 305 305 307 308 312 318 341 342 343 340 340 341 340 340 340 338 337 336 334 333 333 331 329 327 324 325 327 331 330 330 329 328 329 330 330 331 333 333 334
303 303 303 303 303 303 304 305 304 303 302 302 304 305 306 306 308 311 341 342 341 341 341 341 343 341 339 338 336 334 334 333 331 328 325 325 325 330 331 330 329 328 328 329 330 330 331 332 333
303 302 303 301 302 303 303 304 302 303 301 303 305 303 302 302 303 305 307 317 343 338 341 342 342 345 344 340 338 336 335 334 333 330 326 324 324 328 331 330 329 328 328 328 328 328 330 331 330
303 303 302 301 301 303 302 303 303 303 301 303 304 303 303 306 306 307 308 307 319 343 340 339 342 343 342 342 340 338 336 335 334 332 328 323 323 323 329 330 330 328 328 327 327 326 327 328 327
302 302 302 302 301 302 300 302 302 301 301 304 304 307 308 308 308 308 308 309 311 308 336 342 339 341 342 341 341 340 338 337 334 332 330 325 322 323 322 326 329 328 327 327 327 326 324 324 324
302 299 301 301 302 302 301 302 303 301 302 307 307 308 308 307 308 307 307 308 310 312 315 336 342 341 342 341 341 340 340 339 337 335 332 329 323 322 323 324 326 328 328 327 325 324 323 322 322
298 301 302 301 301 302 302 302 302 300 303 307 307 307 308 307 307 307 306 307 308 309 313 325 342 342 343 341 340 339 339 338 339 337 333 331 328 323 321 322 323 325 328 327 326 323 322 320 321
301 301 301 301 300 302 301 301 299 299 304 303 305 305 306 307 306 306 306 306 307 308 310 315 326 341 341 341 339 339 339 337 340 338 336 333 331 326 323 321 322 322 325 327 327 325 322 320 320
300 301 301 301 302 302 301 300 299 298 303 305 305 305 305 306 306 305 305 305 306 309 309 311 314 316 331 340 339 338 338 338 338 338 337 335 333 330 325 323 322 322 323 323 325 324 323 322 321
301 301 300 300 302 302 300 301 299 303 305 304 305 305 306 306 305 304 304 304 304 304 307 308 312 315 316 320 335 340 338 338 338 337 336 336 335 333 329 324 321 321 323 324 324 323 323 323 322
302 298 298 300 301 299 301 299 307 306 305 306 306 304 305 305 304 304 303 303 303 304 305 306 309 312 315 318 326 338 339 338 337 337 337 337 337 335 332 328 325 323 324 325 325 326 323 322 323
303 298 298 299 300 300 301 302 304 307 306 307 306 306 304 305 304 303 303 303 302 303 304 306 308 309 310 313 320 330 338 337 337 336 336 336 336 335 333 330 328 327 326 328 327 328 330 323 323
299 297 297 300 300 301 302 299 300 306 307 307 306 307 304 303 303 303 303 302 302 302 303 305 305 307 308 310 312 316 325 336 337 336 335 335 335 335 334 333 330 328 327 328 329 328 330 324 323
297 299 297 299 300 302 304 301 298 305 307 305 305 306 305 304 303 303 303 303 302 302 303 304 304 305 306 308 310 312 313 320 330 335 334 334 334 334 335 333 331 330 328 328 329 330 330 328 323
296 297 291 295 295 298 300 300 300 305 306 304 300 302 304 304 304 302 302 302 302 302 302 303 303 303 304 305 307 309 311 315 318 325 334 334 333 333 333 334 331 330 330 328 328 329 330 330 327
296 298 290 290 299 300 299 302 300 304 303 298 297 300 304 305 304 302 303 302 302 302 302 301 302 302 303 303 304 306 308 312 315 318 323 333 335 333 333 333 333 332 331 330 329 329 330 329 329
296 296 297 295 301 302 300 301 302 304 303 295 295 296 298 305 304 303 303 303 302 302 302 301 302 301 301 302 302 304 305 308 311 314 321 324 332 336 334 334 334 333 331 331 331 330 329 329 329
297 297 294 288 289 289 297 296 296 300 297 295 294 295 296 303 301 302 303 303 303 303 302 301 301 301 301 301 301 301 302 305 307 311 314 316 322 331 337 336 335 334 333 332 332 332 330 329 329
295 295 293 291 294 290 296 296 294 297 295 294 294 296 295 301 301 300 302 302 302 302 302 301 300 299 301 300 301 300 300 302 304 306 308 312 315 320 326 335 337 336 334 333 333 333 332 330 329
297 296 294 286 286 292 295 296 294 293 294 296 296 296 295 302 301 301 301 301 300 301 302 301 298 298 299 297 299 299 299 300 302 303 305 307 310 315 320 324 327 336 336 334 333 333 333 332 331
Wind_Speed
16 9 4 4 4 5 3 3 3 8 9 4 4 4 4 3 4 4 12 16 34 36 33 31 30 31 31 32 32 32 31 30 28 27 27 26 26 25 26 26 25 24 24 24 25 24 25 25 25
12 7 3 2 5 5 3 5 9 6 6 11 5 3 4 2 3 8 12 24 36 37 33 31 31 31 30 30 29 30 29 29 28 28 27 27 26 26 27 28 27 26 25 25 24 24 26 24 22
6 7 4 4 3 3 2 6 8 11 7 3 6 6 4 3 6 12 10 31 38 36 33 30 30 29 29 28 27 28 28 27 28 28 27 26 26 26 27 29 29 27 26 24 24 24 21 18 20
4 6 4 5 3 2 1 7 8 14 12 9 5 5 5 10 2 2 25 35 39 35 33 31 29 28 27 27 26 27 27 27 27 28 28 27 26 27 28 29 30 29 27 24 19 16 15 17 19
5 3 4 5 3 4 4 7 7 11 10 8 7 4 4 7 6 13 26 32 38 36 34 31 29 28 27 26 26 26 26 26 26 27 28 27 27 27 28 29 30 28 25 21 18 17 18 19 18
4 3 5 3 3 5 4 12 9 10 11 9 12 3 4 6 11 19 25 29 33 34 33 31 29 27 27 26 25 25 25 25 26 26 27 27 26 26 27 28 28 26 24 20 17 16 17 17 16
5 4 4 3 1 3 7 14 11 6 11 14 8 4 2 12 11 16 23 27 30 31 31 29 28 26 25 25 25 24 24 24 24 26 25 26 25 25 26 27 26 25 22 18 15 16 18 16 14
4 4 3 3 1 3 7 8 6 8 6 8 15 7 5 4 9 12 16 23 24 27 29 28 27 26 25 24 24 23 23 23 23 24 25 24 24 25 24 25 25 24 22 18 16 19 19 16 14
2 4 3 6 7 7 7 8 8 6 4 7 10 7 4 7 10 12 11 10 17 22 26 28 27 26 25 24 24 23 23 23 22 23 25 24 24 23 24 24 25 24 21 19 18 18 17 14 13
5 4 6 5 3 4 8 9 8 7 21 13 25 24 10 7 6 8 7 9 11 15 23 25 26 27 26 25 24 24 23 23 23 23 25 25 24 24 23 23 24 23 21 19 19 18 17 15 14
6 4 4 5 4 5 7 9 9 17 14 12 15 18 17 16 7 2 5 8 13 15 19 20 22 27 28 27 27 25 24 24 24 24 25 26 26 25 24 23 23 23 22 20 19 19 17 15 12
6 3 5 6 7 6 4 5 14 15 4 9 9 15 19 18 20 20 10 15 16 13 20 22 23 24 30 29 30 29 27 26 26 26 26 27 27 27 27 25 24 22 22 21 19 18 18 16 12
7 7 4 6 8 18 5 7 8 18 11 12 16 20 15 20 25 27 27 18 17 29 28 28 27 26 26 30 33 32 30 28 28 28 28 30 29 27 28 28 26 25 23 21 20 19 18 17 14
2 4 5 11 11 14 7 9 8 16 11 13 16 17 17 21 25 29 35 33 20 21 26 27 30 30 27 31 34 35 34 32 30 31 31 31 31 30 29 30 29 27 25 22 20 19 18 18 15
3 6 7 13 10 6 7 8 10 8 12 14 15 14 15 21 27 26 27 29 32 22 18 30 34 36 31 31 32 34 30 34 36 35 34 33 33 32 30 30 30 28 26 24 22 20 19 18 17
5 7 5 6 11 6 7 6 10 13 10 15 15 14 13 16 21 28 32 32 31 30 23 18 31 29 32 32 31 31 30 33 39 38 37 36 35 33 32 31 31 29 27 25 24 23 20 18 18
8 3 4 7 6 5 7 5 14 11 9 13 14 11 13 16 25 32 35 33 32 32 31 19 23 28 33 29 31 31 30 30 36 41 41 39 38 36 35 35 33 31 30 28 26 24 23 21 19
4 3 4 4 6 5 4 3 7 8 10 7 10 14 13 14 18 26 32 36 34 33 32 26 16 18 26 31 32 30 29 31 31 42 44 43 41 39 38 37 36 33 32 31 29 27 25 23 20
5 4 3 3 4 5 6 6 9 7 9 10 10 12 15 15 19 26 28 35 37 35 36 33 27 21 8 23 26 25 30 33 31 38 41 42 43 42 41 40 38 36 36 35 33 30 28 25 21
8 6 5 5 6 5 4 6 6 7 5 6 8 13 13 16 17 28 33 33 36 33 35 33 30 26 21 15 15 27 29 27 31 32 32 39 42 45 45 45 43 41 39 37 36 35 32 29 26
4 5 5 5 5 3 2 4 6 4 4 8 10 7 8 10 14 20 29 31 32 36 36 34 31 27 25 22 15 21 25 22 22 28 34 41 45 47 48 47 45 43 42 42 40 39 38 30 31
3 5 5 7 4 1 3 3 3 7 8 12 10 10 9 10 10 16 23 29 31 34 33 32 30 29 28 25 16 12 22 21 24 27 33 34 38 42 44 44 45 45 45 43 44 41 41 37 33
5 9 6 3 1 3 3 3 4 5 7 11 10 9 8 6 7 13 17 23 30 32 33 31 30 29 30 27 24 17 14 18 25 28 30 33 34 38 42 46 43 45 46 45 44 43 42 43 32
6 4 5 4 3 2 1 2 4 2 3 6 9 8 9 10 7 14 17 19 27 32 33 31 30 28 31 30 26 24 20 16 13 16 26 31 33 36 40 42 44 44 45 47 47 46 44 44 43
8 5 4 5 4 4 4 4 5 5 4 4 9 11 7 10 7 10 17 18 23 27 30 32 30 27 28 31 29 26 24 19 17 17 16 24 30 33 39 42 42 44 48 49 44 44 47 46 44
4 3 4 4 2 4 7 3 5 3 4 3 5 7 6 8 8 8 17 20 22 24 26 26 33 32 28 27 29 28 26 20 20 21 21 18 26 35 37 41 45 47 46 47 45 44 49 43 46
4 5 1 4 2 2 3 5 6 5 6 3 7 12 10 5 8 8 18 21 22 24 26 25 23 30 34 29 26 26 28 25 22 22 20 18 18 28 33 39 43 47 46 44 42 42 43 43 46
4 0 2 4 3 4 5 5 5 5 8 7 10 12 13 5 7 10 15 20 24 22 23 26 26 22 27 34 28 26 27 27 26 22 21 23 19 17 29 33 41 44 45 42 40 39 41 40 43
2 2 5 4 3 4 3 6 6 8 7 9 10 14 13 7 7 8 15 22 23 22 20 23 24 24 22 26 33 32 28 28 27 27 27 24 25 20 20 20 33 39 39 42 39 42 41 39 41
1 3 3 4 4 3 3 6 6 7 8 12 17 16 13 6 7 13 19 21 22 22 19 21 23 23 23 28 26 30 29 30 28 27 31 30 27 25 23 24 24 25 35 36 42 42 41 39 42
Wind_Direction
346 349 353 40 59 66 54 29 261 312 327 155 281 132 169 85 173 201 137 159 152 156 156 154 149 145 138 137 138 141 143 143 142 141 138 133 130 128 123 118 116 112 112 112 109 106 106 108 110
355 360 32 71 79 65 320 291 337 277 260 295 207 158 63 53 55 110 125 158 157 156 157 156 151 146 140 138 139 141 142 142 141 139 136 133 130 128 126 122 119 117 114 113 110 109 109 109 111
2 11 71 79 85 90 4 321 307 310 327 321 6 48 36 17 49 144 155 156 157 158 158 159 155 149 143 142 143 142 141 142 140 138 136 132 130 129 129 126 123 121 118 115 115 113 110 107 115
7 17 37 73 71 121 3 317 337 347 338 40 350 42 58 29 83 181 158 161 160 161 160 161 158 154 148 147 146 145 144 144 143 140 138 133 130 131 132 131 129 127 124 121 119 116 116 119 120
34 56 53 75 338 297 324 349 349 355 3 334 349 356 53 27 72 147 158 161 163 162 163 164 163 159 154 151 151 150 148 147 146 143 141 136 133 135 137 137 135 131 128 124 120 115 116 121 122
45 91 57 99 325 307 350 352 351 9 355 326 9 22 58 44 90 135 156 162 165 164 165 166 167 165 160 157 156 155 153 151 149 149 145 141 138 138 140 141 139 135 130 127 124 123 123 123 123
98 74 138 145 356 27 354 329 15 339 12 5 309 35 73 51 101 138 157 166 167 168 169 169 170 170 167 164 161 160 158 157 155 154 152 147 144 142 143 146 145 139 135 129 124 126 130 120 117
97 87 80 12 355 48 334 351 334 37 10 314 9 14 353 42 112 133 149 162 167 170 173 174 175 175 173 170 168 166 164 163 162 161 158 154 150 148 148 150 151 146 143 136 125 127 131 118 110
86 61 53 29 29 316 323 21 342 306 5 47 20 28 37 57 125 113 118 140 168 175 180 179 181 181 179 177 175 173 170 169 169 168 166 163 158 157 155 154 154 153 152 146 137 133 134 126 122
59 77 41 52 38 316 324 18 345 10 27 1 357 356 34 75 82 102 148 168 188 190 188 188 187 188 185 184 183 182 178 176 177 177 176 172 167 165 164 161 160 161 161 156 151 146 143 141 139
16 69 300 4 14 337 324 10 20 35 21 356 338 333 346 12 355 232 160 200 207 206 206 202 198 195 193 190 190 189 188 186 185 185 185 182 177 173 174 172 170 169 169 166 164 159 160 157 153
97 45 15 347 355 15 11 305 69 48 322 306 332 359 6 5 355 343 281 211 217 220 211 213 211 203 200 198 196 194 195 194 193 193 193 191 188 182 183 182 179 178 176 176 175 171 170 171 171
54 9 52 2 53 31 341 39 83 22 347 349 7 15 16 8 359 359 358 332 230 224 215 210 209 209 206 204 201 200 200 201 201 199 199 200 199 191 190 189 187 184 185 184 183 181 178 177 178
12 37 23 20 5 24 45 24 54 351 341 17 24 18 20 24 12 8 5 359 348 246 231 222 218 210 210 213 208 206 206 206 207 206 205 205 208 204 198 195 194 192 190 190 192 193 189 187 189
41 42 25 28 0 26 325 28 8 347 352 30 33 32 25 20 19 10 359 0 5 356 282 244 228 218 213 210 217 210 204 209 212 213 209 209 211 213 212 205 201 200 198 197 198 202 200 200 201
46 49 33 0 27 359 30 323 349 356 17 22 34 25 26 17 11 6 3 2 6 5 354 267 236 219 214 212 210 212 212 211 215 215 214 214 213 215 216 214 213 208 206 207 207 209 211 209 209
17 69 52 349 55 12 53 341 318 340 32 36 17 26 16 7 11 2 357 358 3 8 10 12 242 224 221 217 217 212 217 216 219 218 216 216 217 216 217 217 218 216 214 214 215 214 217 219 213
353 36 6 24 340 23 69 273 297 341 44 31 31 10 16 14 359 358 352 359 2 7 13 18 13 242 229 226 229 230 221 224 223 223 220 218 218 218 219 220 220 218 220 220 219 222 220 222 219
93 82 47 313 346 34 355 321 333 0 36 25 23 24 10 10 353 354 355 358 1 8 9 14 12 357 353 231 224 221 219 220 221 227 225 224 221 220 220 223 223 221 220 222 222 224 225 223 218
58 38 359 313 339 1 26 333 344 35 9 14 7 21 15 358 360 358 352 355 357 356 3 6 9 8 0 322 262 226 227 227 225 225 228 230 228 227 224 223 223 222 222 222 224 223 224 226 217
46 54 322 264 325 1 55 4 360 322 3 12 17 5 13 11 359 350 351 350 351 353 356 359 2 4 6 355 290 248 234 228 224 224 231 233 233 231 229 227 226 225 224 224 222 223 223 221 220
351 356 304 300 30 323 41 281 328 333 357 7 1 359 338 356 3 355 348 348 349 345 353 360 0 3 3 5 358 312 235 233 227 228 230 228 233 235 235 232 230 230 229 226 226 224 224 219 218
260 311 280 303 154 65 7 70 275 326 354 335 323 332 342 348 349 353 346 344 345 349 349 357 355 0 2 5 7 356 350 262 245 237 236 235 232 236 236 234 233 231 233 232 229 228 224 224 216
297 319 30 38 54 43 130 76 295 315 274 309 316 334 331 347 347 343 340 340 346 352 356 354 352 358 359 2 5 3 354 328 308 261 235 234 235 233 235 237 231 232 232 234 233 231 231 227 222
7 32 6 9 9 218 339 7 232 195 220 316 322 311 320 343 333 333 337 338 346 349 357 353 348 349 357 358 1 2 356 346 324 293 284 243 231 227 233 237 228 228 232 235 233 231 232 231 225
334 58 131 189 288 297 322 252 262 217 250 258 328 312 320 338 325 315 325 341 344 349 354 357 351 347 350 358 356 358 359 347 335 327 299 281 242 238 236 234 235 235 232 234 230 229 235 230 232
339 48 134 111 12 297 306 308 311 215 252 314 320 344 345 330 317 309 323 332 345 353 356 356 350 351 353 353 357 352 356 351 341 336 331 299 288 249 242 235 235 234 230 228 225 224 226 228 231
75 325 58 13 55 320 302 288 243 288 287 326 321 332 328 306 310 312 317 323 330 338 348 358 352 342 349 355 355 355 350 351 347 342 331 333 314 309 253 244 236 237 231 227 225 225 225 224 227
3 23 53 111 117 160 292 266 224 266 288 306 297 314 312 289 298 309 314 327 330 340 344 354 350 349 347 351 352 350 355 350 348 347 344 334 327 320 300 275 244 236 232 229 224 224 226 220 225
210 176 124 116 274 226 158 271 283 290 300 309 310 309 310 296 301 306 316 329 333 340 346 351 350 353 354 357 354 350 350 355 349 347 347 344 337 327 329 305 281 259 239 233 225 227 228 222 223